Index of /

[ICO]NameLast ModifiedSize

[TXT]black and decker lawn mower manual2010-06-09T12:13:00+00:00 25 K 
[TXT]2010 hilux workshop manual2010-06-17T12:42:00+00:00 18 K 
[TXT]1971 bmw 1600 valve guide manua2010-06-25T13:11:00+00:00 17 K 
[TXT]zf freedomline transmission parts manual2010-07-03T13:40:00+00:00 20 K 
[TXT]volkswagen manual transmission fluid2010-07-11T14:09:00+00:00 22 K 
[TXT]baseball camp brochure template2010-07-19T14:38:00+00:00 19 K 
[TXT]general motors truck repair manual2010-07-27T15:07:00+00:00 20 K 
[TXT]my passport for mac manual2010-08-04T15:36:00+00:00 20 K 
[TXT]little engine that could story2010-08-12T16:05:00+00:00 19 K 
[TXT]kilgo question stems 6th grade2010-08-20T16:34:00+00:00 25 K 
[TXT]gmc trucks 2004 owner manual2010-08-28T17:03:00+00:00 23 K 
[TXT]tascam service manual2010-09-05T17:32:00+00:00 20 K 
[TXT]where the red fern grows quiz time2010-09-13T18:01:00+00:00 17 K 
[TXT]talkabout t6530 user manual2010-09-21T18:30:00+00:00 25 K 
[TXT]toyota hiace manual gearbox2010-09-29T18:59:00+00:00 19 K 
[TXT]noun student course wares2010-10-07T19:28:00+00:00 18 K 
[TXT]world history period 3 test bank2010-10-15T19:57:00+00:00 20 K 
[TXT]ford 2600 owners manual2010-10-23T20:26:00+00:00 21 K 
[TXT]club 2000 golf manual2010-10-31T20:55:00+00:00 23 K 
[TXT]softball lineup sheets2010-11-08T21:24:00+00:00 24 K 
[TXT]audi a3 repair manual free 2010-11-16T21:53:00+00:00 23 K 
[TXT]wiring diagram for lucas alternator2010-11-24T22:22:00+00:00 19 K 
[TXT]2003 hummer h2 owners manual2010-12-02T22:51:00+00:00 23 K 
[TXT]life sciences june exam scope2010-12-10T23:20:00+00:00 20 K 
[TXT]1998 mustang service manua2010-12-18T23:49:00+00:00 17 K 
[TXT]personal fitness flvs answers2010-12-27T00:18:00+00:00 25 K 
[TXT]tohatsu repair manual tldi2011-01-04T00:47:00+00:00 19 K 
[TXT] chevrolet express owners manual accessories complete2011-01-12T01:16:00+00:00 23 K 
[TXT]eurosec pr5208 alarm manual2011-01-20T01:45:00+00:00 23 K 
[TXT]chemistry ocr past paper january 2010 f3252011-01-28T02:14:00+00:00 19 K 
[TXT]peavey pv8 mixer manual2011-02-05T02:43:00+00:00 24 K 
[TXT]i4618 smoke alarm manual2011-02-13T03:12:00+00:00 22 K 
[TXT]2014 polaris sportsman 550 eps service manual2011-02-21T03:41:00+00:00 20 K 
[TXT]crdi repair manual2011-03-01T04:10:00+00:00 24 K 
[TXT]rubric for key details of fictional text2011-03-09T04:39:00+00:00 17 K 
[TXT]saps training application forms for 20142011-03-17T05:08:00+00:00 25 K 
[TXT]7 speed manual porsche2011-03-25T05:37:00+00:00 17 K 
[TXT]lausd plant manager iii testing2011-04-02T06:06:00+00:00 20 K 
[TXT]tds survey pro manual2011-04-10T06:35:00+00:00 20 K 
[TXT]doosan puma cnc fanuc manual2011-04-18T07:04:00+00:00 20 K 
[TXT]2006 2010 civic service manual2011-04-26T07:33:00+00:00 19 K 
[TXT]amazon kindle user s manual operating instructions2011-05-04T08:02:00+00:00 18 K 
[TXT]1951 aston martin db2 vacuum advance manua2011-05-12T08:31:00+00:00 23 K 
[TXT]fantasy english lessons year 82011-05-20T09:00:00+00:00 19 K 
[TXT]1995 bmw 540i owners manual free pd2011-05-28T09:29:00+00:00 17 K 
[TXT]motorola phones owners manual2011-06-05T09:58:00+00:00 17 K 
[TXT]significant figures in measurement2011-06-13T10:27:00+00:00 21 K 
[TXT]radio shack pro 163 scanner manual2011-06-21T10:56:00+00:00 21 K 
[TXT]john deere lt150 manual 2011-06-29T11:25:00+00:00 21 K 
[TXT]zafira b manual2011-07-07T11:54:00+00:00 19 K 
[TXT]97 jeep grand cherokee manual2011-07-15T12:23:00+00:00 20 K 
[TXT]2007 nissan altima maintenance manual2011-07-23T12:52:00+00:00 19 K 
[TXT]code alarm ca 110 manual2011-07-31T13:21:00+00:00 21 K 
[TXT]nissan almera tino owners manual2011-08-08T13:50:00+00:00 17 K 
[TXT]2002 mini cooper manual transmission2011-08-16T14:19:00+00:00 22 K 
[TXT]2008 audi a3 hydraulic oil manual2011-08-24T14:48:00+00:00 22 K 
[TXT]pomeranian cross manual guide2011-09-01T15:17:00+00:00 25 K 
[TXT]bose acoustimas 8 service manuals2011-09-09T15:46:00+00:00 24 K 
[TXT]timex indiglo wr30m instruction manual2011-09-17T16:15:00+00:00 19 K 
[TXT]manual instrucciones peugeot 308 coche2011-09-25T16:44:00+00:00 22 K 
[TXT]holt biology review answers 512011-10-03T17:13:00+00:00 18 K 
[TXT]1996 holden rodeo ra workshop manua2011-10-11T17:42:00+00:00 18 K 
[TXT]labour relations n5 exam papers2011-10-19T18:11:00+00:00 19 K 
[TXT]dewalt tool manuals2011-10-27T18:40:00+00:00 21 K 
[TXT]hedis 2014 art measure2011-11-04T19:09:00+00:00 25 K 
[TXT]manual caon multimedia2011-11-12T19:38:00+00:00 20 K 
[TXT]kodak m1033 manual2011-11-20T20:07:00+00:00 21 K 
[TXT]precursive 4 unjoined fonts2011-11-28T20:36:00+00:00 17 K 
[TXT]bible school attendance charts2011-12-06T21:05:00+00:00 23 K 
[TXT]clerics challenge 94292011-12-14T21:34:00+00:00 25 K 
[TXT]ford transit 05 service manual 2011-12-22T22:03:00+00:00 20 K 
[TXT]amspar test paper 20142011-12-30T22:32:00+00:00 17 K 
[TXT]95 corolla repair manual 2012-01-07T23:01:00+00:00 17 K 
[TXT]kenmore appliance service manual requests2012-01-15T23:30:00+00:00 18 K 
[TXT] ms25s saildrive manual2012-01-23T23:59:00+00:00 20 K 
[TXT]challenge trigonometry problems2012-02-01T00:28:00+00:00 18 K 
[TXT]arcpad 10 user manual2012-02-09T00:57:00+00:00 18 K 
[TXT]7th grade math final exam study guide2012-02-17T01:26:00+00:00 24 K 
[TXT]toyota sequoia 2004 service and repair manual2012-02-25T01:55:00+00:00 23 K 
[TXT]yamaha xjr 400 manual2012-03-04T02:24:00+00:00 23 K 
[TXT]pink panther bb score2012-03-12T02:53:00+00:00 18 K 
[TXT]2004 toyota camry repair manual pdf2012-03-20T03:22:00+00:00 17 K 
[TXT]unit 6 genetics unit review answers2012-03-28T03:51:00+00:00 25 K 
[TXT]audi a6s6 2005 2009repair manual dvd 2012-04-05T04:20:00+00:00 23 K 
[TXT]school bus driver appreciation sayings2012-04-13T04:49:00+00:00 17 K 
[TXT]garmin nuvi 250 manual 2012-04-21T05:18:00+00:00 21 K 
[TXT]2010 yamaha yz450f owners manual2012-04-29T05:47:00+00:00 19 K 
[TXT]bose wave music system manual 2012-05-07T06:16:00+00:00 25 K 
[TXT]kobelco sk200 service manual2012-05-15T06:45:00+00:00 20 K 
[TXT]kia ceed owners manual handbook2012-05-23T07:14:00+00:00 22 K 
[TXT]renault lorry service manual2012-05-31T07:43:00+00:00 22 K 
[TXT]harcourt social studies grade 32012-06-08T08:12:00+00:00 21 K 
[TXT]kia sedone service manual2012-06-16T08:41:00+00:00 23 K 
[TXT]markon generator manual ucm2 5 52012-06-24T09:10:00+00:00 25 K 
[TXT]harbor breeze ceiling fan manual cc52wwsc2012-07-02T09:39:00+00:00 17 K 
[TXT]emerson ewf2006 manual2012-07-10T10:08:00+00:00 23 K 
[TXT]kindergarten orientation letter2012-07-18T10:37:00+00:00 19 K 
[TXT]manual for quicksilver control2012-07-26T11:06:00+00:00 22 K 
[TXT]bully b e a n s counseling lesson plans2012-08-03T11:35:00+00:00 23 K 
[TXT]9th grade english syllabus california2012-08-11T12:04:00+00:00 17 K 
[TXT]1995 dodge dakota manua2012-08-19T12:33:00+00:00 21 K 
[TXT]first alert professional manual2012-08-27T13:02:00+00:00 18 K 
[TXT]1995 cadillac pdf manua2012-09-04T13:31:00+00:00 17 K 
[TXT]kenwood kmr 700u manual2012-09-12T14:00:00+00:00 22 K 
[TXT]living environment regents review workbook2012-09-20T14:29:00+00:00 19 K 
[TXT]dell ppo1l manual2012-09-28T14:58:00+00:00 21 K 
[TXT]itsy bitsy spider picture sequence2012-10-06T15:27:00+00:00 24 K 
[TXT]nissan t30 workshop manual2012-10-14T15:56:00+00:00 20 K 
[TXT]grade 7 40 day countdown math2012-10-22T16:25:00+00:00 19 K 
[TXT]weber genesis silver b manual2012-10-30T16:54:00+00:00 21 K 
[TXT]agriculture sciences user guide grade 122012-11-07T17:23:00+00:00 18 K 
[TXT]goldstar dvd vcr combo manual2012-11-15T17:52:00+00:00 21 K 
[TXT]whirlpool microwave installation manual2012-11-23T18:21:00+00:00 21 K 
[TXT]hp scanjet 3800 manual2012-12-01T18:50:00+00:00 17 K 
[TXT]sunday school craft joshua 62012-12-09T19:19:00+00:00 18 K 
[TXT]http morepdf com booktag life orientation grade 11 exam papers2012-12-17T19:48:00+00:00 21 K 
[TXT]vizio vu42lfhdtv10a manual2012-12-25T20:17:00+00:00 22 K 
[TXT]audi allroad quattro owners manual 20042013-01-02T20:46:00+00:00 20 K 
[TXT]eng1511 past exam papers2013-01-10T21:15:00+00:00 21 K 
[TXT]2009 dodge ram 1500 owners manual pdf2013-01-18T21:44:00+00:00 25 K 
[TXT]manual fiat palio fire2013-01-26T22:13:00+00:00 17 K 
[TXT]thousand years piano sheets2013-02-03T22:42:00+00:00 18 K 
[TXT]autobiographies for 6th graders2013-02-11T23:11:00+00:00 21 K 
[TXT]math color by number multiplication printables2013-02-19T23:40:00+00:00 23 K 
[TXT]panasonic hdd 42x manual2013-02-28T00:09:00+00:00 17 K 
[TXT]renault scenic repair manual disel 1 92013-03-08T00:38:00+00:00 22 K 
[TXT]chef oven manual user manual2013-03-16T01:07:00+00:00 20 K 
[TXT]journeyman lineman practice test2013-03-24T01:36:00+00:00 20 K 
[TXT]maytag gas dryer repair manual2013-04-01T02:05:00+00:00 19 K 
[TXT]lazarus craft for preschool kids2013-04-09T02:34:00+00:00 17 K 
[TXT]the organic chem lab survival manual2013-04-17T03:03:00+00:00 20 K 
[TXT]volvo penta aqad40 engine manual2013-04-25T03:32:00+00:00 23 K 
[TXT]kings island invitational 20142013-05-03T04:01:00+00:00 18 K 
[TXT]lumix gh2 instruction manual2013-05-11T04:30:00+00:00 21 K 
[TXT]kia sedona lx 2005 auto repair manual 2013-05-19T04:59:00+00:00 20 K 
[TXT]2012 infiniti qx56 owners manual2013-05-27T05:28:00+00:00 21 K 
[TXT]forgotten god study guide2013-06-04T05:57:00+00:00 25 K 
[TXT]audi r8 instrument manual2013-06-12T06:26:00+00:00 18 K 
[TXT]january 2003 regents us history dbq examples2013-06-20T06:55:00+00:00 25 K 
[TXT]owners manual for 2008 ford f2502013-06-28T07:24:00+00:00 19 K 
[TXT]2007 kawasaki ultra lx service manual2013-07-06T07:53:00+00:00 22 K 
[TXT]hp 17bii financial business calculator manual2013-07-14T08:22:00+00:00 17 K 
[TXT]hp officejet 6500a manual 2013-07-22T08:51:00+00:00 23 K 
[TXT]back seat in a 2001 ponitac grand am manual2013-07-30T09:20:00+00:00 17 K 
[TXT]fill in the blanks biography template2013-08-07T09:49:00+00:00 17 K 
[TXT]garmin streetpilot c550 owners manual2013-08-15T10:18:00+00:00 24 K 
[TXT]houghton mifflin common core lessons in units2013-08-23T10:47:00+00:00 22 K 
[TXT]wii fit plus user manual2013-08-31T11:16:00+00:00 22 K 
[TXT]nursing peer review examples2013-09-08T11:45:00+00:00 19 K 
[TXT]2006 acura tl brake disc and pad kit manual2013-09-16T12:14:00+00:00 17 K 
[TXT]getz repair manual2013-09-24T12:43:00+00:00 22 K 
[TXT]nyc 8th grade math test 20132013-10-02T13:12:00+00:00 19 K 
[TXT]kindergarten early screening inventory2013-10-10T13:41:00+00:00 19 K 
[TXT]geometry final exam spring 2011 answers2013-10-18T14:10:00+00:00 18 K 
[TXT]unisa registration 2014coutation2013-10-26T14:39:00+00:00 17 K 
[TXT]ipod touch 2g manual2013-11-03T15:08:00+00:00 19 K 
[TXT]hoover steam vac repair manual2013-11-11T15:37:00+00:00 23 K 
[TXT]manual wii system update2013-11-19T16:06:00+00:00 20 K 
[TXT]opel zafira manual 2013-11-27T16:35:00+00:00 22 K 
[TXT]staff nurse reference letter sample2013-12-05T17:04:00+00:00 25 K 
[TXT]marine corps powerpoint templates2013-12-13T17:33:00+00:00 21 K 
[TXT]sample of kappa kappa gamma reference letter2013-12-21T18:02:00+00:00 17 K 
[TXT]vestas v80 transport manual2013-12-29T18:31:00+00:00 23 K 
[TXT]2002 acura rsx spark plug manual2014-01-06T19:00:00+00:00 23 K 
[TXT]manual de ipod shuffle2014-01-14T19:29:00+00:00 21 K 
[TXT]volvo 330 excavator service manual2014-01-22T19:58:00+00:00 17 K 
[TXT]free gmc 2005 envoy owner manual2014-01-30T20:27:00+00:00 18 K 
[TXT]megane workshop manual2014-02-07T20:56:00+00:00 20 K 
[TXT]acca f1 revision kit2014-02-15T21:25:00+00:00 19 K 
[TXT]whirlpool appliance manuals2014-02-23T21:54:00+00:00 17 K 
[TXT]mathematics linear 43651f 8 november 20122014-03-03T22:23:00+00:00 22 K 
[TXT]tncc questions and answers2014-03-11T22:52:00+00:00 24 K 
[TXT]white k knight tumble dryer manual2014-03-19T23:21:00+00:00 18 K 
[TXT]ib question bank for business and management2014-03-27T23:50:00+00:00 19 K 
[TXT]westgard rules for dummies2014-04-05T00:19:00+00:00 25 K 
[TXT] haynes repair manual 2000 2005 ford focus2014-04-13T00:48:00+00:00 18 K 
[TXT]memorandum business studies november 2013 grade 112014-04-21T01:17:00+00:00 18 K 
[TXT]fg wilson p88 service manual2014-04-29T01:46:00+00:00 22 K 
[TXT]yamaha natural sound av receiver rx v371 manual2014-05-07T02:15:00+00:00 24 K 
[TXT]rspca cat care manual2014-05-15T02:44:00+00:00 20 K 
[TXT]sample patient case management2014-05-23T03:13:00+00:00 22 K 
[TXT]chevrolet silverado navigation manual2014-05-31T03:42:00+00:00 20 K 
[TXT]maisa draft narrative rubric second grade2014-06-08T04:11:00+00:00 23 K 
[TXT]toddler lesson plans for language development2014-06-16T04:40:00+00:00 25 K 
[TXT]entropy energy and equilibrium practice test2014-06-24T05:09:00+00:00 22 K 
[TXT]ancient seceret flower of life2014-07-02T05:38:00+00:00 23 K 
[TXT]photosmart 7760 manual2014-07-10T06:07:00+00:00 18 K 
[TXT]haynes camaro repair manual2014-07-18T06:36:00+00:00 20 K 
[TXT]ford focus 2007 owner manual2014-07-26T07:05:00+00:00 18 K 
[TXT]agilent 7890 gas chromatographic user manual2014-08-03T07:34:00+00:00 24 K 
[TXT]kindergarten computer lab curriculum2014-08-11T08:03:00+00:00 19 K 
[TXT]manual del nokia 53102014-08-19T08:32:00+00:00 23 K 
[TXT]cpt code for exploration of foot wound2014-08-27T09:01:00+00:00 24 K 
[TXT]three little javelinas lesson plans2014-09-04T09:30:00+00:00 17 K 
[TXT]maytag dishwasher quiet series 100 manual2014-09-12T09:59:00+00:00 20 K 
[TXT]honda sh 50 workshop manual2014-09-20T10:28:00+00:00 20 K 
[TXT]honda element manual transmission fluid2014-09-28T10:57:00+00:00 18 K 
[TXT]student growth objectives examples world language2014-10-06T11:26:00+00:00 22 K 
[TXT]1999 5 vw golf gl owner manua2014-10-14T11:55:00+00:00 23 K 
[TXT]honda magna common service manual2014-10-22T12:24:00+00:00 20 K 
[TXT]yamaha kt100j engine manual2014-10-30T12:53:00+00:00 23 K 
[TXT]manual nokia e61i2014-11-07T13:22:00+00:00 20 K 
[TXT]motorola bluetooth h680 manual2014-11-15T13:51:00+00:00 19 K 
[TXT]acura rsx owner manual2014-11-23T14:20:00+00:00 24 K 
[TXT]enterprise workbook 3 answer key2014-12-01T14:49:00+00:00 22 K 
[TXT]magnavox msr90d6 manual2014-12-09T15:18:00+00:00 19 K 
[TXT]two digit addition and subtraction bingo2014-12-17T15:47:00+00:00 17 K 
[TXT]2005 infiniti g35 coupe service manual2014-12-25T16:16:00+00:00 24 K 
[TXT]circle geometry summary sheet2015-01-02T16:45:00+00:00 24 K 
[TXT]ms project 2013 manual2015-01-10T17:14:00+00:00 24 K 
[TXT]ukzn application forms 20152015-01-18T17:43:00+00:00 19 K 
[TXT]2000 golf seevice manual2015-01-26T18:12:00+00:00 21 K 
[TXT]bmw repair manual 5 series2015-02-03T18:41:00+00:00 19 K 
[TXT]vw golf mk5 gt haynes manual2015-02-11T19:10:00+00:00 25 K 
[TXT]faa aeronautical information manual2015-02-19T19:39:00+00:00 20 K 
[TXT]87 toyota mr2 workshop manual2015-02-27T20:08:00+00:00 24 K 
[TXT]jeep yj service manual 2015-03-07T20:37:00+00:00 23 K 
[TXT]september 2014 intake in kenya polytechnic2015-03-15T21:06:00+00:00 22 K 
[TXT]panasonic fv 11vq5 manual2015-03-23T21:35:00+00:00 18 K 
[TXT]user manual lg gs1702015-03-31T22:04:00+00:00 24 K 
[TXT]general electric cordless phones manual2015-04-08T22:33:00+00:00 20 K 
[TXT]hp laserjet p3005 printer series manual2015-04-16T23:02:00+00:00 21 K 
[TXT]toyota corolla fx16 manual2015-04-24T23:31:00+00:00 21 K 
[TXT]kohler sv590 service manual2015-05-03T00:00:00+00:00 19 K 
[TXT]biology subject area ftce2015-05-11T00:29:00+00:00 22 K 
[TXT]kubota l2350 manual2015-05-19T00:58:00+00:00 25 K 
[TXT]manual iriver h10 5gb mp3 player2015-05-27T01:27:00+00:00 23 K 
[TXT]volvo xc 90 manual de instrucciones2015-06-04T01:56:00+00:00 23 K 
[TXT]surface area of triangular prism answers2015-06-12T02:25:00+00:00 21 K 
[TXT]2010 audi q7 auxiliary water pump manual2015-06-20T02:54:00+00:00 20 K 
[TXT]macroeconomics final test questions and answers2015-06-28T03:23:00+00:00 18 K 
[TXT]ah bach factoring answers2015-07-06T03:52:00+00:00 19 K 
[TXT]yamaha outboard rigging manual2015-07-14T04:21:00+00:00 23 K 
[TXT]summer literacy packets2015-07-22T04:50:00+00:00 21 K 
[TXT]camaro 97 manual owner2015-07-30T05:19:00+00:00 17 K 
[TXT]kenmore elite washer manual2015-08-07T05:48:00+00:00 20 K 
[TXT]biology laboratory manual2015-08-15T06:17:00+00:00 23 K 
[TXT]common core math 5th grade place value2015-08-23T06:46:00+00:00 18 K 
[TXT]toyota camry 2002 user manual2015-08-31T07:15:00+00:00 18 K 
[TXT]verizon wireless droid 4 manual2015-09-08T07:44:00+00:00 22 K 
[TXT]motorola t6500 manual2015-09-16T08:13:00+00:00 17 K 
[TXT]interqual ltac admission criteria2015-09-24T08:42:00+00:00 20 K 
[TXT]2003 audi a4 radiator manual2015-10-02T09:11:00+00:00 17 K 
[TXT]yamaha electric organ manual2015-10-10T09:40:00+00:00 19 K 
[TXT]permission slip sample for club2015-10-18T10:09:00+00:00 20 K 
[TXT]honda cbx 550 manual book2015-10-26T10:38:00+00:00 20 K 
[TXT]1997 mercedes benz e420 owners manua2015-11-03T11:07:00+00:00 18 K 
[TXT]cessna 210 flight manual2015-11-11T11:36:00+00:00 17 K 
[TXT]blank glossary template2015-11-19T12:05:00+00:00 17 K 
[TXT]staff appreciation quotes2015-11-27T12:34:00+00:00 20 K 
[TXT]mashairi ya wasakatonge2015-12-05T13:03:00+00:00 25 K 
[TXT]european ball screen offense2015-12-13T13:32:00+00:00 20 K 
[TXT]audi a6 service manual 1998 2004 includes a6 allroad quattro s6 rs62015-12-21T14:01:00+00:00 24 K 
[TXT]zvox audio home theater manuals2015-12-29T14:30:00+00:00 21 K 
[TXT]holt modern chemistry gases test a answers2016-01-06T14:59:00+00:00 23 K 
[TXT]dhet past exam papers2016-01-14T15:28:00+00:00 20 K 
[TXT]area and perimeter kuta2016-01-22T15:57:00+00:00 21 K 
[TXT]honors geometry circle review problems2016-01-30T16:26:00+00:00 20 K 
[TXT]plant growth lesson plans 3rd grade2016-02-07T16:55:00+00:00 18 K 
[TXT]raft samples for second grade2016-02-15T17:24:00+00:00 17 K 
[TXT]free ford tractor 1700 service manual2016-02-23T17:53:00+00:00 24 K 
[TXT]2006 acura csx tpms sensor manual2016-03-02T18:22:00+00:00 20 K 
[TXT]our moon by cynthia sherwood question answers2016-03-10T18:51:00+00:00 19 K 
[TXT]my city projects for 3rd grade2016-03-18T19:20:00+00:00 22 K 
[TXT]chevy camaro manual transmission2016-03-26T19:49:00+00:00 24 K 
[TXT]2005 audi a4 power steering pump pulley manual2016-04-03T20:18:00+00:00 20 K 
[TXT]holt biology answer key active transport2016-04-11T20:47:00+00:00 17 K 
[TXT]respiratory system study guide2016-04-19T21:16:00+00:00 22 K 
[TXT]pmw ex3 manual2016-04-27T21:45:00+00:00 21 K 
[TXT]practice equations in moles2016-05-05T22:14:00+00:00 19 K 
[TXT]civil service wage grade pay scale 20142016-05-13T22:43:00+00:00 18 K 
[TXT]manual transmission trucks for sale2016-05-21T23:12:00+00:00 21 K 
[TXT]2002 toyota rav4 owners manual 2016-05-29T23:41:00+00:00 22 K 
[TXT]laws of power java 2016-06-07T00:10:00+00:00 18 K 
[TXT]johnson 50 outboard manual2016-06-15T00:39:00+00:00 24 K 
[TXT]closing prayer on hope2016-06-23T01:08:00+00:00 17 K 
[TXT]chance 2 applications connections extetions2016-07-01T01:37:00+00:00 22 K 
[TXT]life orinentatino memo september 20132016-07-09T02:06:00+00:00 25 K 
[TXT]microsoft office outlook 20102016-07-17T02:35:00+00:00 18 K 
[TXT]nvi 1450lmt manual2016-07-25T03:04:00+00:00 22 K 
[TXT]geography paper1 grade 102016-08-02T03:33:00+00:00 19 K 
[TXT]honda manual transmission fluid viscosity2016-08-10T04:02:00+00:00 18 K 
[TXT]owners manual acura tl 19962016-08-18T04:31:00+00:00 17 K 
[TXT]xerox 6679 service manual142016-08-26T05:00:00+00:00 18 K 
[TXT]2005 dodge ram owners manual2016-09-03T05:29:00+00:00 22 K 
[TXT]2012 jeep compass manual2016-09-11T05:58:00+00:00 24 K 
[TXT]2011 ford f150 platinum owners manual2016-09-19T06:27:00+00:00 22 K 
[TXT]test callum the caterpillar2016-09-27T06:56:00+00:00 17 K 
[TXT]access 2013 missing manual2016-10-05T07:25:00+00:00 19 K 
[TXT]math test for hobby lobby2016-10-13T07:54:00+00:00 24 K 
[TXT]informative writing prompts for 5th grade2016-10-21T08:23:00+00:00 17 K 
[TXT]pathway sunday school lesson june 15 20142016-10-29T08:52:00+00:00 17 K 
[TXT]2005 acura el control arm manual2016-11-06T09:21:00+00:00 18 K 
[TXT]marantz sr7500 instruction manual2016-11-14T09:50:00+00:00 20 K 
[TXT]nikon af user manual2016-11-22T10:19:00+00:00 22 K 
[TXT]2000 chrysler concorde lxi service manual2016-11-30T10:48:00+00:00 25 K 
[TXT]fj62 manual2016-12-08T11:17:00+00:00 23 K 
[TXT]rme marking scheme 2014 pdf2016-12-16T11:46:00+00:00 23 K 
[TXT]manual gearbox for sale2016-12-24T12:15:00+00:00 22 K 
[TXT]hp laserjet 4600 manual2017-01-01T12:44:00+00:00 19 K